Aérodrome :
LOGIN :

S'inscrire | Disclaimer

   EN    FR    IT 

 










Légende :    VFR   VFR Marginal   IFR   IFR Intensif   IFR Très Intensif
Visi : 
Plafond : 
>= 8 km
>= 3000ft
5 à 8 km
1000 à 3000 ft
1500m à 5 km
500 à 1000 ft
800 à 1500m
200 à 500 ft
< 800m
< 200 ft
Symboles :   Orages  Brouillard  Fortes neiges  Fortes précipitations  Vent > 20 kt
SIGMETs :   Divers  Orages  Givrage  Turbulence  Onde Orograph.  Cendres Volcan.







- Altitude de l'aérodrome : 779 ft
- Code IATA : CMF
- Voir les cartes d'approche


LFLB - Chambery / Aix-Les-Bains

DERNIER METAR :
  • 231800Z AUTO 00000KT CAVOK 06/03 Q1018 NOSIG

METARs EXPIRÉS :
  • 231730Z AUTO 00000KT CAVOK 06/03 Q1018 NOSIG
  • 231700Z AUTO 00000KT CAVOK 07/03 Q1018 BECMG 16010KT
  • 231630Z AUTO 21004KT CAVOK 09/04 Q1018 NOSIG
  • 231600Z AUTO 00000KT CAVOK 11/03 Q1018 BECMG 16010KT
  • 231530Z AUTO VRB01KT CAVOK 13/02 Q1017 NOSIG

TAF TAF LFLB
Valide du 23 à 18h jusqu'au 24 à 18h UTC


231700Z 2318/2418 15008KT CAVOK
TEMPO 2409/2412 VRB02KT
BECMG 2412/2414 02012KT
TEMPO 2414/2418 -RA
Pas de NOTAMs connus pour ce terrain.



MET'MAP, la Météo Aéronautique d'un coup d'oeil ! - Copyright ORBIFLY Décembre 2007 - Disclaimer

ORBIFLY MET'MAP TEAM :

Programmation & Développement : Alexandra Zaïnal
Conception & Développement : Baudouin d'Aumeries
Co-Programmation & Développement : Marc-Olivier Méhu
Soutien technique & logistique : Manuel Goepfert

Contact : metmap@orbifly.com




SOURCES & CREDITS :

   NOAA